カタログに戻る

STARLINK-34058

運用中通信VLEO
NORAD 63818·PAYLOAD·🇺🇸 United States

打ち上げ May 4, 2025 から Cape Canaveral Space Force Station

Loading…

次のパス (今後24時間)

TLE

最新Source: CelesTrak SupGP

元期: Sep 15, 2026, 03:23 UTC

1 63818C 25092Q   26258.14145833 -.00026657  00000+0 -96569-3 0  2589
2 63818  42.9996 182.2831 0001429 276.1052  52.5196 15.27585911    14

AllMySatでSTARLINK-34058をリアルタイム追跡

Download on the App Store